KPF660 LOWS-EKOD

Flight info

Callsign KPF660
Flight time 1h 13m
Altitude 40000
Route INROM DCT SIMBA Y700 NENUM DCT EPTEU L604 RUDNO M736 AKOSI DCT MAG DCT NOBRI M726 ROSOK
Aircraft CL60/M-SBDE1E2E3FGHIJ1J4J5J7M3RWXYZ/LB1V1D1

Departure

Time 2026-05-07 08:41
Airport Salzburg Airport (LOWS)

Arrival

Time 2026-05-07 09:54
Airport Odense Hans Christian Andersen Airport (EKOD)
Time Latitude Longitude Altitude Speed Heading
2026-05-07 08:08 47.79591 12.99874 1418 ft 0 kts 15°
2026-05-07 08:36 47.79592 12.99875 1418 ft 1 kts 15°
2026-05-07 08:36 47.79591 12.99849 1418 ft 7 kts 184°
2026-05-07 08:36 47.79553 12.99896 1418 ft 8 kts 96°
2026-05-07 08:36 47.79557 12.99930 1418 ft 2 kts 73°
2026-05-07 08:37 47.79540 12.99994 1418 ft 10 kts 156°
2026-05-07 08:37 47.79464 13.00040 1418 ft 13 kts 159°
2026-05-07 08:37 47.79400 13.00081 1418 ft 10 kts 155°
2026-05-07 08:37 47.79321 13.00130 1418 ft 13 kts 156°
2026-05-07 08:38 47.79222 13.00194 1418 ft 17 kts 157°
2026-05-07 08:38 47.79103 13.00270 1418 ft 20 kts 157°
2026-05-07 08:38 47.78967 13.00355 1418 ft 22 kts 157°
2026-05-07 08:38 47.78821 13.00448 1419 ft 23 kts 157°
2026-05-07 08:39 47.78665 13.00547 1418 ft 25 kts 156°
2026-05-07 08:39 47.78557 13.00617 1418 ft 10 kts 153°
2026-05-07 08:39 47.78531 13.00721 1419 ft 11 kts 73°
2026-05-07 08:39 47.78563 13.00830 1418 ft 10 kts 66°
2026-05-07 08:40 47.78601 13.00853 1419 ft 4 kts 338°
2026-05-07 08:40 47.78640 13.00829 1419 ft 25 kts 336°
2026-05-07 08:40 47.79141 13.00513 1419 ft 129 kts 336°
2026-05-07 08:40 47.80159 12.99868 1897 ft 173 kts 334°
2026-05-07 08:41 47.81300 12.99149 2827 ft 192 kts 336°
2026-05-07 08:41 47.82712 12.99003 3651 ft 220 kts 12°
2026-05-07 08:41 47.84008 13.00259 4430 ft 229 kts 43°
2026-05-07 08:41 47.85173 13.01818 5286 ft 221 kts 35°
2026-05-07 08:42 47.86434 13.03150 6170 ft 237 kts 34°
2026-05-07 08:42 47.87889 13.04673 6911 ft 272 kts 35°
2026-05-07 08:42 47.89462 13.06337 7633 ft 286 kts 35°
2026-05-07 08:42 47.91087 13.08067 8371 ft 289 kts 36°
2026-05-07 08:43 47.92731 13.09822 9149 ft 292 kts 36°
2026-05-07 08:43 47.94372 13.11579 9874 ft 295 kts 36°
2026-05-07 08:43 47.96064 13.13396 10639 ft 310 kts 36°
2026-05-07 08:43 47.97912 13.15374 11393 ft 340 kts 34°
2026-05-07 08:44 48.00087 13.16962 12134 ft 361 kts 14°
2026-05-07 08:44 48.02603 13.17288 12892 ft 368 kts 351°
2026-05-07 08:44 48.04999 13.16115 13656 ft 367 kts 330°
2026-05-07 08:44 48.07272 13.14284 14395 ft 367 kts 328°
2026-05-07 08:45 48.09515 13.12475 15149 ft 369 kts 329°
2026-05-07 08:45 48.11780 13.10650 15905 ft 373 kts 328°
2026-05-07 08:45 48.14110 13.08771 16675 ft 379 kts 328°
2026-05-07 08:45 48.16434 13.06895 17431 ft 384 kts 328°
2026-05-07 08:46 48.18794 13.04989 18184 ft 390 kts 328°
2026-05-07 08:46 48.21218 13.03030 18989 ft 399 kts 328°
2026-05-07 08:46 48.23814 13.01461 19955 ft 409 kts 343°
2026-05-07 08:46 48.26687 13.00728 20853 ft 417 kts 349°
2026-05-07 08:47 48.29581 13.00097 21704 ft 423 kts 349°
2026-05-07 08:47 48.32492 12.99454 22507 ft 429 kts 349°
2026-05-07 08:47 48.35458 12.98799 23297 ft 434 kts 349°
2026-05-07 08:47 48.38475 12.98132 24056 ft 439 kts 349°
2026-05-07 08:48 48.41565 12.97449 24731 ft 445 kts 349°
2026-05-07 08:48 48.44656 12.96764 25289 ft 453 kts 348°
2026-05-07 08:48 48.47810 12.96064 25838 ft 459 kts 348°
2026-05-07 08:48 48.50960 12.95365 26381 ft 465 kts 348°
2026-05-07 08:49 48.54178 12.94651 26924 ft 469 kts 348°
2026-05-07 08:49 48.57441 12.93938 27395 ft 475 kts 348°
2026-05-07 08:49 48.60756 12.93215 27813 ft 482 kts 348°
2026-05-07 08:49 48.64095 12.92486 28261 ft 486 kts 348°
2026-05-07 08:50 48.67431 12.91757 28706 ft 491 kts 348°
2026-05-07 08:50 48.70838 12.91012 29116 ft 495 kts 348°
2026-05-07 08:50 48.74267 12.90261 29527 ft 499 kts 348°
2026-05-07 08:50 48.77750 12.89497 29994 ft 500 kts 348°
2026-05-07 08:51 48.81205 12.88739 30494 ft 501 kts 348°
2026-05-07 08:51 48.84626 12.87988 30989 ft 500 kts 348°
2026-05-07 08:51 48.88067 12.87231 31556 ft 497 kts 348°
2026-05-07 08:51 48.91489 12.86479 32140 ft 494 kts 348°
2026-05-07 08:52 48.94887 12.85731 32703 ft 490 kts 348°
2026-05-07 08:52 48.98161 12.85009 33166 ft 488 kts 348°
2026-05-07 08:52 49.01542 12.84261 33563 ft 486 kts 348°
2026-05-07 08:52 49.04853 12.83527 33931 ft 485 kts 348°
2026-05-07 08:53 49.08198 12.82723 34297 ft 482 kts 345°
2026-05-07 08:53 49.11429 12.81461 34688 ft 476 kts 339°
2026-05-07 08:53 49.14519 12.79660 35090 ft 469 kts 332°
2026-05-07 08:53 49.17429 12.77338 35482 ft 462 kts 324°
2026-05-07 08:54 49.20070 12.74593 35826 ft 457 kts 318°
2026-05-07 08:54 49.22457 12.71421 36101 ft 453 kts 311°
2026-05-07 08:54 49.24705 12.67962 36375 ft 452 kts 310°
2026-05-07 08:54 49.26906 12.64549 36637 ft 452 kts 310°
2026-05-07 08:55 49.29114 12.61123 36884 ft 453 kts 311°
2026-05-07 08:55 49.31327 12.57687 37137 ft 452 kts 311°
2026-05-07 08:55 49.33558 12.54275 37362 ft 454 kts 314°
2026-05-07 08:55 49.36001 12.51157 37594 ft 456 kts 319°
2026-05-07 08:56 49.38504 12.48137 37828 ft 456 kts 319°
2026-05-07 08:56 49.40993 12.45119 38043 ft 455 kts 319°
2026-05-07 08:56 49.43473 12.42108 38244 ft 455 kts 319°
2026-05-07 08:56 49.45971 12.39070 38461 ft 455 kts 319°
2026-05-07 08:57 49.48439 12.36064 38671 ft 455 kts 319°
2026-05-07 08:57 49.50861 12.33108 38862 ft 456 kts 318°
2026-05-07 08:57 49.53377 12.30033 39053 ft 456 kts 318°
2026-05-07 08:57 49.55872 12.26980 39244 ft 456 kts 318°
2026-05-07 08:58 49.58336 12.23959 39438 ft 456 kts 318°
2026-05-07 08:58 49.60836 12.20891 39604 ft 456 kts 318°
2026-05-07 08:58 49.63300 12.17862 39765 ft 456 kts 318°
2026-05-07 08:58 49.65860 12.14854 39930 ft 458 kts 322°
2026-05-07 08:59 49.71518 12.10211 39958 ft 469 kts 336°
2026-05-07 08:59 49.77937 12.07761 39961 ft 478 kts 352°
2026-05-07 09:00 49.84613 12.06901 39957 ft 481 kts 354°
2026-05-07 09:00 49.91262 12.06078 39948 ft 480 kts 354°
2026-05-07 09:01 49.97931 12.05253 39942 ft 478 kts 354°
2026-05-07 09:01 50.04555 12.04433 39942 ft 477 kts 354°
2026-05-07 09:02 50.11208 12.03609 39941 ft 477 kts 354°
2026-05-07 09:02 50.17849 12.02784 39946 ft 478 kts 354°
2026-05-07 09:03 50.24536 12.01953 39944 ft 479 kts 354°
2026-05-07 09:03 50.31166 12.01127 39947 ft 479 kts 354°
2026-05-07 09:04 50.37827 12.00295 39942 ft 479 kts 354°
2026-05-07 09:04 50.44461 11.99465 39942 ft 479 kts 354°
2026-05-07 09:05 50.51094 11.98632 39939 ft 478 kts 354°
2026-05-07 09:05 50.57732 11.97797 39942 ft 478 kts 354°
2026-05-07 09:06 50.64363 11.96961 39941 ft 477 kts 354°
2026-05-07 09:06 50.71027 11.96118 39950 ft 477 kts 354°
2026-05-07 09:07 50.77623 11.95281 39945 ft 477 kts 354°
2026-05-07 09:07 50.84278 11.94434 39946 ft 477 kts 354°
2026-05-07 09:08 50.90899 11.93589 39950 ft 477 kts 354°
2026-05-07 09:08 50.97509 11.92743 39952 ft 477 kts 354°
2026-05-07 09:09 51.04098 11.91898 39954 ft 476 kts 354°
2026-05-07 09:09 51.10694 11.91049 39957 ft 476 kts 354°
2026-05-07 09:10 51.17357 11.90189 39961 ft 476 kts 354°
2026-05-07 09:10 51.23945 11.89336 39963 ft 475 kts 354°
2026-05-07 09:11 51.30516 11.88483 39965 ft 476 kts 354°
2026-05-07 09:11 51.37134 11.87622 39964 ft 476 kts 354°
2026-05-07 09:12 51.43738 11.86759 39967 ft 476 kts 354°
2026-05-07 09:12 51.50341 11.85895 39970 ft 476 kts 354°
2026-05-07 09:13 51.56942 11.85027 39972 ft 476 kts 354°
2026-05-07 09:13 51.63568 11.84155 39973 ft 476 kts 354°
2026-05-07 09:14 51.70175 11.83282 39981 ft 476 kts 354°
2026-05-07 09:14 51.76769 11.82408 39982 ft 475 kts 354°
2026-05-07 09:15 51.83336 11.81536 39983 ft 475 kts 354°
2026-05-07 09:15 51.89909 11.80660 39989 ft 475 kts 354°
2026-05-07 09:16 51.96524 11.79776 39982 ft 475 kts 354°
2026-05-07 09:16 52.03131 11.78820 39990 ft 475 kts 353°
2026-05-07 09:17 52.09755 11.77773 39995 ft 475 kts 353°
2026-05-07 09:17 52.16338 11.76730 39995 ft 475 kts 353°
2026-05-07 09:18 52.22932 11.75684 39995 ft 475 kts 353°
2026-05-07 09:18 52.29521 11.74635 39998 ft 475 kts 353°
2026-05-07 09:19 52.36108 11.73585 40002 ft 474 kts 353°
2026-05-07 09:19 52.42685 11.72532 39998 ft 474 kts 353°
2026-05-07 09:20 52.49232 11.71482 39998 ft 474 kts 353°
2026-05-07 09:20 52.55812 11.70423 40008 ft 474 kts 353°
2026-05-07 09:21 52.62415 11.69358 40002 ft 475 kts 353°
2026-05-07 09:21 52.68986 11.68294 40011 ft 474 kts 353°
2026-05-07 09:22 52.75554 11.67228 40007 ft 474 kts 353°
2026-05-07 09:22 52.82125 11.66159 40010 ft 474 kts 353°
2026-05-07 09:23 52.88703 11.65084 40009 ft 474 kts 353°
2026-05-07 09:23 52.95263 11.64010 40016 ft 474 kts 353°
2026-05-07 09:24 53.01826 11.62931 40017 ft 474 kts 353°
2026-05-07 09:24 53.08425 11.61844 40014 ft 474 kts 353°
2026-05-07 09:25 53.14988 11.60759 40021 ft 474 kts 353°
2026-05-07 09:25 53.21563 11.59774 40027 ft 474 kts 357°
2026-05-07 09:26 53.28114 11.60720 40025 ft 476 kts 11°
2026-05-07 09:26 53.34501 11.63726 40028 ft 477 kts 15°
2026-05-07 09:27 53.40909 11.66904 40028 ft 478 kts 15°
2026-05-07 09:28 53.50487 11.71679 40029 ft 478 kts 16°
2026-05-07 09:28 53.56883 11.74883 40035 ft 478 kts 16°
2026-05-07 09:29 53.63254 11.78087 40035 ft 478 kts 15°
2026-05-07 09:29 53.69607 11.81292 40041 ft 478 kts 15°
2026-05-07 09:30 53.75970 11.84514 40044 ft 477 kts 15°
2026-05-07 09:30 53.82349 11.87754 40042 ft 478 kts 15°
2026-05-07 09:31 53.88709 11.90996 39946 ft 481 kts 15°
2026-05-07 09:31 53.91961 11.92657 39423 ft 489 kts 15°
2026-05-07 09:31 53.95221 11.94325 38835 ft 486 kts 16°
2026-05-07 09:31 53.98418 11.95964 38263 ft 483 kts 15°
2026-05-07 09:32 54.01640 11.97618 37587 ft 484 kts 15°
2026-05-07 09:32 54.04869 11.99237 36951 ft 483 kts 13°
2026-05-07 09:32 54.08157 12.00411 36245 ft 484 kts
2026-05-07 09:32 54.11453 12.00956 35511 ft 483 kts
2026-05-07 09:33 54.14836 12.00865 34810 ft 480 kts 354°
2026-05-07 09:33 54.18138 12.00139 34116 ft 475 kts 348°
2026-05-07 09:33 54.21332 11.98809 33421 ft 471 kts 342°
2026-05-07 09:33 54.24404 11.96924 32293 ft 473 kts 335°
2026-05-07 09:34 54.27293 11.94449 31773 ft 459 kts 329°
2026-05-07 09:34 54.29955 11.91543 31148 ft 459 kts 323°
2026-05-07 09:34 54.32447 11.88147 30570 ft 458 kts 317°
2026-05-07 09:34 54.34753 11.84378 29963 ft 456 kts 314°
2026-05-07 09:35 54.36995 11.80549 29372 ft 453 kts 314°
2026-05-07 09:35 54.39212 11.76761 28773 ft 448 kts 314°
2026-05-07 09:35 54.41610 11.72660 28129 ft 444 kts 314°
2026-05-07 09:35 54.43991 11.68580 27492 ft 439 kts 314°
2026-05-07 09:36 54.46169 11.64841 26905 ft 435 kts 313°
2026-05-07 09:36 54.48281 11.61211 26331 ft 431 kts 313°
2026-05-07 09:36 54.50421 11.57526 25757 ft 428 kts 313°
2026-05-07 09:36 54.52502 11.53939 25188 ft 425 kts 313°
2026-05-07 09:37 54.54579 11.50352 24631 ft 421 kts 313°
2026-05-07 09:37 54.56630 11.46806 24078 ft 417 kts 313°
2026-05-07 09:37 54.58667 11.43278 23533 ft 414 kts 313°
2026-05-07 09:37 54.60700 11.39751 22975 ft 411 kts 313°
2026-05-07 09:38 54.62706 11.36267 22438 ft 407 kts 313°
2026-05-07 09:38 54.64691 11.32813 21902 ft 403 kts 313°
2026-05-07 09:38 54.66653 11.29396 21366 ft 399 kts 313°
2026-05-07 09:38 54.68625 11.25956 20832 ft 396 kts 313°
2026-05-07 09:39 54.70542 11.22607 20310 ft 393 kts 313°
2026-05-07 09:39 54.72452 11.19263 19793 ft 390 kts 313°
2026-05-07 09:39 54.74369 11.15904 19272 ft 387 kts 313°
2026-05-07 09:39 54.76246 11.12613 18772 ft 384 kts 313°
2026-05-07 09:40 54.78115 11.09327 18257 ft 381 kts 313°
2026-05-07 09:40 54.79960 11.06081 17755 ft 378 kts 314°
2026-05-07 09:40 54.81809 11.02824 17267 ft 375 kts 314°
2026-05-07 09:40 54.83625 10.99620 16761 ft 373 kts 314°
2026-05-07 09:41 54.85429 10.96432 16267 ft 370 kts 314°
2026-05-07 09:41 54.87246 10.93217 15776 ft 368 kts 314°
2026-05-07 09:41 54.89075 10.89976 15279 ft 366 kts 314°
2026-05-07 09:41 54.90850 10.86829 14795 ft 363 kts 314°
2026-05-07 09:42 54.92614 10.83694 14313 ft 360 kts 314°
2026-05-07 09:42 54.94342 10.80620 13845 ft 354 kts 314°
2026-05-07 09:42 54.96046 10.77586 13377 ft 345 kts 314°
2026-05-07 09:42 54.97685 10.74664 12930 ft 337 kts 314°
2026-05-07 09:43 54.99295 10.71790 12492 ft 328 kts 314°
2026-05-07 09:43 55.00872 10.68971 12060 ft 319 kts 315°
2026-05-07 09:43 55.02411 10.66216 11640 ft 312 kts 315°
2026-05-07 09:43 55.03905 10.63539 11231 ft 305 kts 315°
2026-05-07 09:44 55.05371 10.60909 10828 ft 299 kts 315°
2026-05-07 09:44 55.06812 10.58324 10434 ft 293 kts 315°
2026-05-07 09:44 55.08222 10.55789 10050 ft 288 kts 315°
2026-05-07 09:44 55.09662 10.53198 9649 ft 283 kts 315°
2026-05-07 09:45 55.11060 10.50680 9280 ft 277 kts 315°
2026-05-07 09:45 55.12400 10.48274 8901 ft 275 kts 316°
2026-05-07 09:45 55.13744 10.45871 8537 ft 274 kts 316°
2026-05-07 09:45 55.15073 10.43486 8177 ft 274 kts 315°
2026-05-07 09:46 55.16394 10.41100 7812 ft 273 kts 315°
2026-05-07 09:46 55.17718 10.38707 7445 ft 270 kts 316°
2026-05-07 09:46 55.19031 10.36330 7097 ft 265 kts 315°
2026-05-07 09:46 55.20324 10.33989 6737 ft 260 kts 315°
2026-05-07 09:47 55.21571 10.31726 6396 ft 255 kts 315°
2026-05-07 09:47 55.22794 10.29503 6053 ft 250 kts 315°
2026-05-07 09:47 55.23992 10.27313 5733 ft 245 kts 315°
2026-05-07 09:47 55.25177 10.25147 5405 ft 241 kts 315°
2026-05-07 09:48 55.26328 10.23045 5083 ft 237 kts 315°
2026-05-07 09:48 55.27453 10.20987 4783 ft 233 kts 315°
2026-05-07 09:48 55.28565 10.18954 4466 ft 230 kts 315°
2026-05-07 09:48 55.29665 10.16939 4168 ft 226 kts 315°
2026-05-07 09:49 55.30742 10.14965 3873 ft 223 kts 315°
2026-05-07 09:49 55.31875 10.13110 3495 ft 224 kts 326°
2026-05-07 09:49 55.33219 10.11697 3150 ft 222 kts 331°
2026-05-07 09:49 55.34551 10.10343 2882 ft 220 kts 331°
2026-05-07 09:50 55.35869 10.09001 2581 ft 219 kts 331°
2026-05-07 09:50 55.37272 10.08049 2290 ft 214 kts 354°
2026-05-07 09:50 55.38723 10.08357 2015 ft 208 kts 24°
2026-05-07 09:50 55.39875 10.09845 1973 ft 208 kts 51°
2026-05-07 09:51 55.40675 10.11980 1972 ft 209 kts 60°
2026-05-07 09:51 55.41389 10.14200 1988 ft 207 kts 60°
2026-05-07 09:51 55.42113 10.16393 1969 ft 201 kts 60°
2026-05-07 09:51 55.42804 10.18463 1740 ft 190 kts 59°
2026-05-07 09:52 55.43443 10.20370 1502 ft 173 kts 59°
2026-05-07 09:52 55.44013 10.22079 1237 ft 151 kts 59°
2026-05-07 09:52 55.44536 10.23651 1009 ft 158 kts 60°
2026-05-07 09:52 55.45092 10.25337 840 ft 150 kts 59°
2026-05-07 09:53 55.45588 10.26824 648 ft 131 kts 59°
2026-05-07 09:53 55.46065 10.28250 551 ft 129 kts 59°
2026-05-07 09:53 55.46513 10.29612 330 ft 130 kts 59°
2026-05-07 09:53 55.46955 10.30949 136 ft 126 kts 59°
2026-05-07 09:54 55.47387 10.32250 60 ft 111 kts 59°
2026-05-07 09:54 55.47680 10.33138 60 ft 54 kts 59°
2026-05-07 09:54 55.47790 10.33470 57 ft 11 kts 52°
2026-05-07 09:54 55.47828 10.33544 56 ft 7 kts 131°
2026-05-07 09:55 55.47787 10.33462 57 ft 16 kts 242°
2026-05-07 09:55 55.47710 10.33224 59 ft 24 kts 239°
2026-05-07 09:55 55.47632 10.32988 60 ft 20 kts 239°
2026-05-07 09:55 55.47555 10.32758 61 ft 21 kts 239°
2026-05-07 09:56 55.47497 10.32587 61 ft 8 kts 218°
2026-05-07 09:56 55.47440 10.32623 61 ft 7 kts 137°
2026-05-07 09:56 55.47411 10.32672 61 ft 4 kts 133°
2026-05-07 09:56 55.47386 10.32718 61 ft 5 kts 135°
2026-05-07 09:57 55.47351 10.32779 61 ft 6 kts 135°
2026-05-07 09:57 55.47331 10.32851 61 ft 7 kts 62°
2026-05-07 09:57 55.47360 10.32851 61 ft 0 kts 316°